Station Historical Data
Daily Summary for February 20, 2017 Units:  Metric    English   Both
Next Day »
Daily Weekly Monthly Yearly Custom
  High: Low: Average:
Temperature: 9 °C 7.1 °C 8.1 °C
Dew Point: 8.2 °C 6.2 °C 7.2 °C
Humidity: 95% 93% 94%
Wind Speed: 56.3km/h 0km/h 15.4km/h
Wind Gust: 69.2km/h - -
Wind- - South
Pressure: 1018.2 hPa 1013.1 hPa -
Precipitation: 0 mm    
Historical Graphs
 
 
Tabular Data for February 20, 2017
Time Temperature Dew Point Pressure Wind Wind Speed Wind Gust Humidity Rainfall Rate (Hourly) solar Conditions
00:04 7.6 °C 6.6 °C 1014.8 hPa SE 20.9 km/h 38.6 km/h 93% 0 mm 0.00 W/m2
00:09 7.6 °C 6.6 °C 1014.4 hPa SSE 11.3 km/h 29 km/h 93% 0 mm 0.00 W/m2
00:14 7.7 °C 6.6 °C 1014.4 hPa SSE 24.1 km/h 37 km/h 93% 0 mm 0.00 W/m2
00:19 7.7 °C 6.6 °C 1014.4 hPa South 20.9 km/h 40.2 km/h 93% 0 mm 0.00 W/m2
00:24 7.7 °C 6.7 °C 1014.8 hPa South 24.1 km/h 24.1 km/h 93% 0 mm 0.00 W/m2
00:29 7.8 °C 6.7 °C 1014.8 hPa South 20.9 km/h 29 km/h 93% 0 mm 0.00 W/m2
00:34 7.8 °C 6.8 °C 1014.8 hPa SSE 17.7 km/h 24.1 km/h 93% 0 mm 0.00 W/m2
00:39 7.8 °C 6.8 °C 1014.4 hPa South 17.7 km/h 29 km/h 93% 0 mm 0.00 W/m2
00:44 7.8 °C 6.8 °C 1014.1 hPa SSE 9.7 km/h 32.2 km/h 93% 0 mm 0.00 W/m2
00:49 7.8 °C 6.8 °C 1014.1 hPa SSE 3.2 km/h 32.2 km/h 93% 0 mm 0.00 W/m2
00:54 7.8 °C 6.8 °C 1013.8 hPa SE 11.3 km/h 22.5 km/h 93% 0 mm 0.00 W/m2
00:59 7.8 °C 6.7 °C 1013.8 hPa SSE 27.4 km/h 32.2 km/h 93% 0 mm 0.00 W/m2
01:01 7.8 °C 6.9 °C 1013.8 hPa SSE 16.1 km/h 32.2 km/h 94% 0 mm 0.00 W/m2
01:06 7.7 °C 6.8 °C 1013.8 hPa South 27.4 km/h 41.8 km/h 94% 0 mm 0.00 W/m2
01:11 7.7 °C 6.8 °C 1013.4 hPa SSE 29 km/h 41.8 km/h 94% 0 mm 0.00 W/m2
01:16 7.7 °C 6.7 °C 1013.4 hPa SSE 16.1 km/h 46.7 km/h 93% 0 mm 0.00 W/m2
01:21 7.7 °C 6.7 °C 1013.4 hPa SE 9.7 km/h 35.4 km/h 93% 0 mm 0.00 W/m2
01:25 7.7 °C 6.7 °C 1013.4 hPa SSE 16.1 km/h 38.6 km/h 93% 0 mm 0.00 W/m2
01:30 7.7 °C 6.7 °C 1013.4 hPa South 11.3 km/h 43.5 km/h 93% 0 mm 0.00 W/m2
01:35 7.7 °C 6.7 °C 1013.8 hPa SSE 19.3 km/h 38.6 km/h 93% 0 mm 0.00 W/m2
01:41 7.7 °C 6.7 °C 1013.4 hPa South 17.7 km/h 38.6 km/h 93% 0 mm 0.00 W/m2
01:46 7.8 °C 6.7 °C 1013.4 hPa SSE 19.3 km/h 32.2 km/h 93% 5.08 mm 0.00 W/m2
01:51 7.8 °C 6.7 °C 1013.1 hPa SE 17.7 km/h 45.1 km/h 93% 3.81 mm 0.00 W/m2
01:56 7.8 °C 6.8 °C 1013.4 hPa SE 12.9 km/h 32.2 km/h 93% 3.56 mm 0.00 W/m2
02:01 7.9 °C 6.8 °C 1013.8 hPa South 19.3 km/h 27.4 km/h 93% 3.81 mm 0.00 W/m2
02:06 7.9 °C 6.8 °C 1014.1 hPa SW 11.3 km/h 27.4 km/h 93% 3.05 mm 0.00 W/m2
02:11 7.9 °C 6.8 °C 1014.4 hPa South 8 km/h 17.7 km/h 93% 5.59 mm 0.00 W/m2
02:16 7.9 °C 6.8 °C 1014.1 hPa South 16.1 km/h 20.9 km/h 93% 4.83 mm 0.00 W/m2
02:21 7.9 °C 6.8 °C 1013.8 hPa South 17.7 km/h 29 km/h 93% 4.06 mm 0.00 W/m2
02:26 7.9 °C 6.8 °C 1013.8 hPa South 11.3 km/h 29 km/h 93% 3.3 mm 0.00 W/m2
02:31 7.9 °C 6.8 °C 1013.8 hPa South 12.9 km/h 37 km/h 93% 4.06 mm 0.00 W/m2
02:36 7.9 °C 6.8 °C 1013.8 hPa South 17.7 km/h 33.8 km/h 93% 4.06 mm 0.00 W/m2
02:41 7.9 °C 6.9 °C 1014.1 hPa South 16.1 km/h 32.2 km/h 93% 4.06 mm 0.00 W/m2
02:46 7.9 °C 6.9 °C 1014.4 hPa South 20.9 km/h 33.8 km/h 93% 4.83 mm 0.00 W/m2
02:51 7.9 °C 6.8 °C 1014.1 hPa SSW 32.2 km/h 35.4 km/h 93% 7.11 mm 0.00 W/m2
02:56 7.9 °C 6.8 °C 1014.1 hPa SSW 22.5 km/h 53.1 km/h 93% 5.59 mm 0.00 W/m2
03:01 7.9 °C 6.8 °C 1013.4 hPa SSE 30.6 km/h 41.8 km/h 93% 6.35 mm 0.00 W/m2
03:06 7.9 °C 6.8 °C 1013.4 hPa SSE 22.5 km/h 45.1 km/h 93% 3.3 mm 0.00 W/m2
03:11 7.9 °C 6.8 °C 1013.4 hPa SSW 16.1 km/h 45.1 km/h 93% 1.52 mm 0.00 W/m2
03:16 7.9 °C 6.8 °C 1013.8 hPa South 22.5 km/h 41.8 km/h 93% 1.02 mm 0.00 W/m2
03:21 7.9 °C 6.9 °C 1013.8 hPa SSE 9.7 km/h 48.3 km/h 93% 0 mm 0.00 W/m2
03:26 7.9 °C 6.9 °C 1013.8 hPa SE 27.4 km/h 27.4 km/h 93% 0 mm 0.00 W/m2
03:31 8 °C 6.9 °C 1013.8 hPa South 20.9 km/h 20.9 km/h 93% 1.52 mm 0.00 W/m2
03:36 8.1 °C 7 °C 1013.8 hPa South 27.4 km/h 37 km/h 93% 1.52 mm 0.00 W/m2
03:41 8.1 °C 7 °C 1013.8 hPa SSW 16.1 km/h 27.4 km/h 93% 2.54 mm 0.00 W/m2
03:46 8.1 °C 7.1 °C 1013.8 hPa South 14.5 km/h 22.5 km/h 93% 2.54 mm 0.00 W/m2
03:51 8.2 °C 7.1 °C 1013.8 hPa SSE 17.7 km/h 27.4 km/h 93% 3.05 mm 0.00 W/m2
03:56 8.2 °C 7.2 °C 1013.8 hPa South 30.6 km/h 30.6 km/h 93% 5.08 mm 0.00 W/m2
04:01 8.3 °C 7.2 °C 1013.8 hPa SSE 24.1 km/h 27.4 km/h 93% 5.59 mm 0.00 W/m2
04:06 8.3 °C 7.2 °C 1014.1 hPa SSW 12.9 km/h 16.1 km/h 93% 4.32 mm 0.00 W/m2
04:11 8.3 °C 7.3 °C 1014.1 hPa SSE 29 km/h 30.6 km/h 93% 12.95 mm 0.00 W/m2
04:16 8.3 °C 7.4 °C 1014.4 hPa SSW 9.7 km/h 19.3 km/h 94% 9.4 mm 0.00 W/m2
04:21 8.4 °C 7.5 °C 1014.4 hPa SSW 11.3 km/h 12.9 km/h 94% 8.64 mm 0.00 W/m2
04:26 8.4 °C 7.5 °C 1014.4 hPa South 9.7 km/h 16.1 km/h 94% 7.87 mm 0.00 W/m2
04:31 8.4 °C 7.5 °C 1014.1 hPa South 11.3 km/h 25.7 km/h 94% 6.35 mm 0.00 W/m2
04:36 8.4 °C 7.5 °C 1014.1 hPa South 29 km/h 43.5 km/h 94% 6.1 mm 0.00 W/m2
04:41 8.5 °C 7.6 °C 1014.4 hPa SSE 8 km/h 9.7 km/h 94% 6.35 mm 0.00 W/m2
04:46 8.6 °C 7.7 °C 1014.4 hPa South 29 km/h 29 km/h 94% 5.33 mm 0.00 W/m2
04:51 8.6 °C 7.7 °C 1014.4 hPa South 19.3 km/h 32.2 km/h 94% 7.87 mm 0.00 W/m2
04:56 8.6 °C 7.7 °C 1014.4 hPa SSE 33.8 km/h 33.8 km/h 94% 6.1 mm 0.00 W/m2
05:01 8.7 °C 7.8 °C 1014.4 hPa SSE 11.3 km/h 33.8 km/h 94% 5.84 mm 0.00 W/m2
05:06 8.7 °C 7.8 °C 1014.4 hPa SSE 9.7 km/h 16.1 km/h 94% 6.35 mm 0.00 W/m2
05:11 8.7 °C 7.8 °C 1014.4 hPa South 11.3 km/h 16.1 km/h 94% 4.32 mm 0.00 W/m2
05:16 8.7 °C 7.8 °C 1014.8 hPa SSW 11.3 km/h 14.5 km/h 94% 3.56 mm 0.00 W/m2
05:21 8.7 °C 7.8 °C 1014.4 hPa SSE 16.1 km/h 16.1 km/h 94% 4.83 mm 0.00 W/m2
05:26 8.7 °C 7.8 °C 1014.4 hPa SSW 22.5 km/h 22.5 km/h 94% 3.81 mm 0.00 W/m2
05:31 8.7 °C 7.8 °C 1014.1 hPa SE 8 km/h 17.7 km/h 94% 3.81 mm 0.00 W/m2
05:36 8.7 °C 7.8 °C 1014.1 hPa South 14.5 km/h 17.7 km/h 94% 3.3 mm 0.00 W/m2
05:41 8.7 °C 7.8 °C 1014.1 hPa SSE 11.3 km/h 12.9 km/h 94% 4.57 mm 0.00 W/m2
05:46 8.7 °C 7.8 °C 1014.1 hPa SSE 11.3 km/h 16.1 km/h 94% 6.6 mm 0.00 W/m2
05:51 8.7 °C 7.8 °C 1014.1 hPa SSE 14.5 km/h 14.5 km/h 94% 6.35 mm 0.00 W/m2
05:56 8.7 °C 7.8 °C 1014.1 hPa South 17.7 km/h 17.7 km/h 94% 4.57 mm 0.00 W/m2
06:01 8.7 °C 7.8 °C 1014.4 hPa South 17.7 km/h 22.5 km/h 94% 5.33 mm 0.00 W/m2
06:06 8.7 °C 7.8 °C 1014.4 hPa SSW 11.3 km/h 17.7 km/h 94% 7.37 mm 0.00 W/m2
06:12 8.8 °C 7.9 °C 1014.4 hPa Calm   12.9 km/h 94% 11.18 mm 0.00 W/m2
06:17 8.8 °C 7.9 °C 1014.4 hPa WSW 6.4 km/h 11.3 km/h 94% 8.64 mm 0.00 W/m2
06:22 8.7 °C 7.8 °C 1014.8 hPa SW 8 km/h 19.3 km/h 94% 10.92 mm 0.00 W/m2
06:27 8.7 °C 7.8 °C 1014.8 hPa Calm   9.7 km/h 94% 7.62 mm 0.00 W/m2
06:32 8.7 °C 7.8 °C 1015.1 hPa Calm   4.8 km/h 94% 7.62 mm 0.00 W/m2
06:37 8.7 °C 7.8 °C 1015.5 hPa SSW 6.4 km/h 24.1 km/h 94% 12.95 mm 0.00 W/m2
06:42 8.7 °C 7.8 °C 1015.5 hPa WSW 6.4 km/h 14.5 km/h 94% 7.62 mm 0.00 W/m2
06:47 8.6 °C 7.7 °C 1015.5 hPa WSW 12.9 km/h 20.9 km/h 94% 3.05 mm 0.00 W/m2
06:52 8.6 °C 7.7 °C 1015.8 hPa Calm   16.1 km/h 94% 6.86 mm 0.00 W/m2
06:57 8.6 °C 7.7 °C 1015.8 hPa SW 4.8 km/h 22.5 km/h 94% 5.08 mm 0.00 W/m2
07:02 8.5 °C 7.6 °C 1015.8 hPa SSW 8 km/h 14.5 km/h 94% 3.56 mm 0.00 W/m2
07:07 8.5 °C 7.6 °C 1015.8 hPa Calm     94% 17.78 mm 5.00 W/m2
07:12 8.4 °C 7.6 °C 1015.5 hPa South 6.4 km/h 11.3 km/h 94% 6.1 mm 5.00 W/m2
07:17 8.4 °C 7.6 °C 1015.8 hPa SW 19.3 km/h 25.7 km/h 94% 4.32 mm 0.00 W/m2
07:22 8.4 °C 7.6 °C 1015.8 hPa South 19.3 km/h 24.1 km/h 94% 4.32 mm 0.00 W/m2
07:27 8.4 °C 7.6 °C 1015.8 hPa SSW 8 km/h 11.3 km/h 94% 3.56 mm 0.00 W/m2
07:32 8.4 °C 7.6 °C 1015.8 hPa SW 8 km/h 20.9 km/h 94% 2.54 mm 0.00 W/m2
07:37 8.5 °C 7.6 °C 1015.8 hPa South 17.7 km/h 20.9 km/h 94% 3.56 mm 5.00 W/m2
07:42 8.4 °C 7.6 °C 1015.8 hPa South 17.7 km/h 22.5 km/h 94% 3.05 mm 7.00 W/m2
07:47 8.4 °C 7.6 °C 1016.1 hPa SW 9.7 km/h 24.1 km/h 94% 3.3 mm 5.00 W/m2
07:52 8.4 °C 7.6 °C 1016.1 hPa South 12.9 km/h 24.1 km/h 94% 2.03 mm 7.00 W/m2
07:57 8.5 °C 7.6 °C 1016.1 hPa South 14.5 km/h 22.5 km/h 94% 3.05 mm 7.00 W/m2
08:02 8.4 °C 7.6 °C 1016.1 hPa South 16.1 km/h 33.8 km/h 94% 2.29 mm 5.00 W/m2
08:07 8.5 °C 7.6 °C 1016.5 hPa SSW 22.5 km/h 35.4 km/h 94% 2.29 mm 7.00 W/m2
08:12 8.5 °C 7.6 °C 1016.5 hPa WSW 24.1 km/h 32.2 km/h 94% 3.05 mm 16.00 W/m2
08:17 8.5 °C 7.6 °C 1016.5 hPa SSW 8 km/h 25.7 km/h 94% 3.05 mm 14.00 W/m2
08:22 8.5 °C 7.6 °C 1016.5 hPa SW 16.1 km/h 35.4 km/h 94% 2.29 mm 16.00 W/m2
08:27 8.6 °C 7.7 °C 1016.5 hPa SSW 24.1 km/h 24.1 km/h 94% 2.03 mm 14.00 W/m2
08:32 8.6 °C 7.7 °C 1016.5 hPa South 16.1 km/h 19.3 km/h 94% 1.52 mm 16.00 W/m2
08:37 8.6 °C 7.7 °C 1016.8 hPa SSW 16.1 km/h 22.5 km/h 94% 3.3 mm 12.00 W/m2
08:42 8.5 °C 7.6 °C 1016.5 hPa SSW 17.7 km/h 17.7 km/h 94% 3.05 mm 14.00 W/m2
08:47 8.5 °C 7.6 °C 1016.5 hPa SSE 11.3 km/h 25.7 km/h 94% 3.05 mm 16.00 W/m2
08:52 8.5 °C 7.6 °C 1016.8 hPa SSW 24.1 km/h 24.1 km/h 94% 2.54 mm 16.00 W/m2
08:57 8.5 °C 7.6 °C 1016.8 hPa SSW 16.1 km/h 22.5 km/h 94% 2.54 mm 14.00 W/m2
09:02 8.5 °C 7.6 °C 1016.8 hPa SSW 6.4 km/h 25.7 km/h 94% 3.3 mm 18.00 W/m2
09:08 8.5 °C 7.6 °C 1016.8 hPa South 16.1 km/h 19.3 km/h 94% 3.05 mm 14.00 W/m2
09:13 8.5 °C 7.6 °C 1016.8 hPa SSW 17.7 km/h 25.7 km/h 94% 3.05 mm 19.00 W/m2
09:18 8.4 °C 7.6 °C 1016.8 hPa SW 8 km/h 19.3 km/h 94% 2.54 mm 16.00 W/m2
09:23 8.4 °C 7.6 °C 1017.2 hPa South 9.7 km/h 20.9 km/h 94% 3.81 mm 18.00 W/m2
09:28 8.4 °C 7.6 °C 1016.8 hPa South 8 km/h 24.1 km/h 94% 3.56 mm 21.00 W/m2
09:33 8.4 °C 7.6 °C 1016.8 hPa SSE 9.7 km/h 20.9 km/h 94% 3.56 mm 18.00 W/m2
09:38 8.4 °C 7.6 °C 1016.8 hPa SSE 27.4 km/h 33.8 km/h 94% 2.29 mm 30.00 W/m2
09:43 8.4 °C 7.5 °C 1016.8 hPa SE 9.7 km/h 25.7 km/h 94% 2.03 mm 21.00 W/m2
09:47 8.4 °C 7.5 °C 1016.5 hPa SE 24.1 km/h 32.2 km/h 94% 2.54 mm 26.00 W/m2
09:53 8.4 °C 7.5 °C 1016.8 hPa South 11.3 km/h 22.5 km/h 94% 2.54 mm 21.00 W/m2
09:58 8.4 °C 7.5 °C 1016.8 hPa SSE 25.7 km/h 25.7 km/h 94% 1.52 mm 32.00 W/m2
10:03 8.3 °C 7.4 °C 1016.8 hPa South 17.7 km/h 22.5 km/h 94% 1.52 mm 19.00 W/m2
10:08 8.3 °C 7.4 °C 1016.8 hPa SSW 16.1 km/h 20.9 km/h 94% 1.78 mm 18.00 W/m2
10:13 8.3 °C 7.4 °C 1016.5 hPa SSE 17.7 km/h 22.5 km/h 94% 1.78 mm 30.00 W/m2
10:18 8.3 °C 7.4 °C 1016.8 hPa SSE 6.4 km/h 24.1 km/h 94% 2.03 mm 23.00 W/m2
10:23 8.3 °C 7.4 °C 1017.2 hPa South 12.9 km/h 25.7 km/h 94% 1.78 mm 23.00 W/m2
10:28 8.3 °C 7.4 °C 1016.8 hPa SE 14.5 km/h 22.5 km/h 94% 1.78 mm 35.00 W/m2
10:33 8.3 °C 7.4 °C 1017.2 hPa South 12.9 km/h 25.7 km/h 94% 1.78 mm 30.00 W/m2
10:38 8.3 °C 7.4 °C 1017.2 hPa SSE 19.3 km/h 29 km/h 94% 3.3 mm 35.00 W/m2
10:43 8.3 °C 7.4 °C 1016.8 hPa South 14.5 km/h 22.5 km/h 94% 4.06 mm 28.00 W/m2
10:48 8.3 °C 7.4 °C 1016.8 hPa South 22.5 km/h 27.4 km/h 94% 3.81 mm 33.00 W/m2
10:53 8.3 °C 7.4 °C 1017.2 hPa SSW 9.7 km/h 24.1 km/h 94% 4.06 mm 33.00 W/m2
10:58 8.2 °C 7.3 °C 1017.2 hPa SSE 12.9 km/h 25.7 km/h 94% 3.56 mm 40.00 W/m2
11:03 8.2 °C 7.3 °C 1017.5 hPa SSW 11.3 km/h 30.6 km/h 94% 4.06 mm 33.00 W/m2
11:08 8.3 °C 7.4 °C 1017.8 hPa SSW 6.4 km/h 22.5 km/h 94% 3.56 mm 28.00 W/m2
11:13 8.2 °C 7.3 °C 1017.8 hPa SSW 12.9 km/h 22.5 km/h 94% 6.35 mm 39.00 W/m2
11:18 8.2 °C 7.3 °C 1018.2 hPa SSW 12.9 km/h 25.7 km/h 94% 5.33 mm 32.00 W/m2
11:23 8.2 °C 7.3 °C 1017.8 hPa South 9.7 km/h 22.5 km/h 94% 5.84 mm 33.00 W/m2
11:28 8.2 °C 7.3 °C 1017.5 hPa South 19.3 km/h 29 km/h 94% 3.81 mm 44.00 W/m2
11:33 8.2 °C 7.3 °C 1017.5 hPa South 9.7 km/h 20.9 km/h 94% 6.1 mm 25.00 W/m2
11:38 8.2 °C 7.3 °C 1017.5 hPa SSW 3.2 km/h 24.1 km/h 94% 4.06 mm 39.00 W/m2
11:43 8.2 °C 7.3 °C 1017.8 hPa SW 29 km/h 29 km/h 94% 4.06 mm 69.00 W/m2
11:48 8.1 °C 7.2 °C 1017.5 hPa SSE 6.4 km/h 29 km/h 94% 4.06 mm 39.00 W/m2
11:53 8.1 °C 7.2 °C 1017.5 hPa South 14.5 km/h 27.4 km/h 94% 3.81 mm 46.00 W/m2
11:58 8.1 °C 7.2 °C 1017.5 hPa SSE 12.9 km/h 16.1 km/h 94% 3.81 mm 33.00 W/m2
12:03 8.1 °C 7.2 °C 1017.8 hPa SSW 11.3 km/h 25.7 km/h 94% 4.32 mm 23.00 W/m2
12:08 8.1 °C 7.2 °C 1017.8 hPa WSW 9.7 km/h 16.1 km/h 94% 3.3 mm 16.00 W/m2
12:13 8.1 °C 7.2 °C 1017.5 hPa South 11.3 km/h 25.7 km/h 94% 4.32 mm 37.00 W/m2
12:18 8 °C 7.1 °C 1017.5 hPa Calm   12.9 km/h 94% 4.83 mm 44.00 W/m2
12:23 8 °C 7.1 °C 1017.2 hPa SSW 19.3 km/h 22.5 km/h 94% 3.05 mm 65.00 W/m2
12:28 7.9 °C 7.1 °C 1017.2 hPa SSE 14.5 km/h 22.5 km/h 94% 4.32 mm 42.00 W/m2
12:33 7.9 °C 7.1 °C 1016.8 hPa SSE 1.6 km/h 14.5 km/h 94% 3.05 mm 21.00 W/m2
12:38 7.9 °C 7.1 °C 1016.8 hPa South 14.5 km/h 29 km/h 94% 4.32 mm 28.00 W/m2
12:43 7.9 °C 7.1 °C 1016.8 hPa SSE 20.9 km/h 20.9 km/h 94% 5.08 mm 39.00 W/m2
12:48 7.9 °C 7 °C 1017.2 hPa SSE 8 km/h 25.7 km/h 94% 4.57 mm 32.00 W/m2
12:53 7.8 °C 6.9 °C 1017.2 hPa SSW 14.5 km/h 22.5 km/h 94% 4.06 mm 30.00 W/m2
12:58 7.8 °C 6.9 °C 1017.2 hPa South 29 km/h 29 km/h 94% 5.59 mm 47.00 W/m2
13:03 7.8 °C 6.9 °C 1016.8 hPa South 12.9 km/h 19.3 km/h 94% 4.32 mm 49.00 W/m2
13:08 7.7 °C 6.8 °C 1016.5 hPa SSE 20.9 km/h 30.6 km/h 94% 3.05 mm 46.00 W/m2
13:13 7.7 °C 6.8 °C 1016.8 hPa SSE 16.1 km/h 22.5 km/h 94% 3.05 mm 40.00 W/m2
13:18 7.6 °C 6.7 °C 1016.5 hPa South 8 km/h 22.5 km/h 94% 3.05 mm 40.00 W/m2
13:23 7.7 °C 6.8 °C 1016.5 hPa South 14.5 km/h 19.3 km/h 94% 3.05 mm 33.00 W/m2
13:28 7.6 °C 6.7 °C 1016.5 hPa South 12.9 km/h 29 km/h 94% 3.3 mm 28.00 W/m2
13:33 7.7 °C 6.8 °C 1016.8 hPa South 11.3 km/h 22.5 km/h 94% 2.03 mm 21.00 W/m2
13:38 7.7 °C 6.8 °C 1016.5 hPa SSE 27.4 km/h 27.4 km/h 94% 3.56 mm 18.00 W/m2
13:43 7.6 °C 6.7 °C 1016.5 hPa South 12.9 km/h 19.3 km/h 94% 5.59 mm 21.00 W/m2
13:48 7.6 °C 6.7 °C 1016.5 hPa Calm     94% 6.86 mm 16.00 W/m2
13:53 7.6 °C 6.7 °C 1016.5 hPa SSE 16.1 km/h 16.1 km/h 94% 6.86 mm 28.00 W/m2
13:58 7.6 °C 6.7 °C 1016.1 hPa SSW 14.5 km/h 22.5 km/h 94% 6.35 mm 33.00 W/m2
14:03 7.5 °C 6.6 °C 1015.8 hPa SSE 8 km/h 20.9 km/h 94% 5.59 mm 39.00 W/m2
14:08 7.5 °C 6.6 °C 1015.8 hPa South 12.9 km/h 22.5 km/h 94% 4.32 mm 33.00 W/m2
14:13 7.5 °C 6.6 °C 1015.8 hPa South 6.4 km/h 24.1 km/h 94% 4.06 mm 42.00 W/m2
14:18 7.5 °C 6.6 °C 1016.5 hPa SSW 14.5 km/h 19.3 km/h 94% 4.57 mm 25.00 W/m2
14:23 7.5 °C 6.6 °C 1016.5 hPa SSE 11.3 km/h 17.7 km/h 94% 3.56 mm 19.00 W/m2
14:28 7.5 °C 6.6 °C 1016.5 hPa SSW 17.7 km/h 30.6 km/h 94% 5.84 mm 32.00 W/m2
14:33 7.4 °C 6.6 °C 1016.1 hPa South 9.7 km/h 19.3 km/h 94% 5.08 mm 35.00 W/m2
14:34 7.4 °C 6.6 °C 1016.1 hPa South 6.4 km/h 19.3 km/h 94% 5.08 mm 35.00 W/m2
14:39 7.4 °C 6.5 °C 1015.8 hPa Calm   16.1 km/h 94% 4.83 mm 33.00 W/m2
14:44 7.4 °C 6.5 °C 1015.5 hPa SSE 3.2 km/h 12.9 km/h 94% 4.06 mm 40.00 W/m2
14:49 7.4 °C 6.5 °C 1015.5 hPa SSE 3.2 km/h 17.7 km/h 94% 5.08 mm 21.00 W/m2
14:54 7.3 °C 6.4 °C 1015.5 hPa SSE 12.9 km/h 22.5 km/h 94% 4.06 mm 39.00 W/m2
14:59 7.3 °C 6.4 °C 1015.1 hPa SSE 11.3 km/h 22.5 km/h 94% 3.3 mm 23.00 W/m2
15:04 7.3 °C 6.4 °C 1015.1 hPa Calm   20.9 km/h 94% 2.54 mm 23.00 W/m2
15:09 7.3 °C 6.4 °C 1014.8 hPa SSE 12.9 km/h 16.1 km/h 94% 3.05 mm 18.00 W/m2
15:14 7.3 °C 6.4 °C 1014.8 hPa Calm   11.3 km/h 94% 3.05 mm 14.00 W/m2
15:19 7.3 °C 6.4 °C 1014.4 hPa Calm     94% 3.81 mm 19.00 W/m2
15:24 7.3 °C 6.4 °C 1015.1 hPa SSE 16.1 km/h 16.1 km/h 94% 5.08 mm 14.00 W/m2
15:29 7.3 °C 6.4 °C 1015.8 hPa South 16.1 km/h 16.1 km/h 94% 6.1 mm 14.00 W/m2
15:34 7.3 °C 6.4 °C 1015.8 hPa SSE 3.2 km/h 20.9 km/h 94% 9.65 mm 25.00 W/m2
15:39 7.3 °C 6.4 °C 1015.5 hPa SSE 8 km/h 14.5 km/h 94% 8.64 mm 25.00 W/m2
15:44 7.3 °C 6.4 °C 1015.1 hPa Calm   17.7 km/h 94% 6.35 mm 25.00 W/m2
15:49 7.2 °C 6.3 °C 1014.8 hPa SSE 6.4 km/h 17.7 km/h 94% 5.08 mm 18.00 W/m2
15:54 7.2 °C 6.3 °C 1014.8 hPa Calm   14.5 km/h 94% 5.84 mm 5.00 W/m2
15:59 7.2 °C 6.3 °C 1015.5 hPa Calm   20.9 km/h 94% 7.62 mm 11.00 W/m2
16:04 7.2 °C 6.3 °C 1015.8 hPa South 12.9 km/h 17.7 km/h 94% 7.37 mm 16.00 W/m2
16:09 7.2 °C 6.3 °C 1015.5 hPa SSE 8 km/h 19.3 km/h 94% 8.89 mm 23.00 W/m2
16:14 7.2 °C 6.3 °C 1015.5 hPa SW 6.4 km/h 14.5 km/h 94% 6.86 mm 23.00 W/m2
16:19 7.2 °C 6.3 °C 1015.5 hPa Calm   12.9 km/h 94% 5.59 mm 16.00 W/m2
16:24 7.2 °C 6.3 °C 1015.1 hPa SSE 17.7 km/h 17.7 km/h 94% 5.59 mm 11.00 W/m2
16:29 7.2 °C 6.3 °C 1014.8 hPa SSE 12.9 km/h 19.3 km/h 94% 3.3 mm 16.00 W/m2
16:34 7.2 °C 6.3 °C 1014.8 hPa SSE 14.5 km/h 19.3 km/h 94% 3.3 mm 11.00 W/m2
16:39 7.2 °C 6.3 °C 1014.4 hPa SE 9.7 km/h 24.1 km/h 94% 3.3 mm 12.00 W/m2
16:44 7.2 °C 6.3 °C 1014.4 hPa Calm   14.5 km/h 94% 2.54 mm 7.00 W/m2
16:49 7.2 °C 6.3 °C 1014.4 hPa South 12.9 km/h 16.1 km/h 94% 3.3 mm 7.00 W/m2
16:54 7.2 °C 6.3 °C 1014.8 hPa SSE 8 km/h 19.3 km/h 94% 4.83 mm 5.00 W/m2
16:59 7.2 °C 6.3 °C 1014.8 hPa SSE 22.5 km/h 22.5 km/h 94% 8.89 mm 11.00 W/m2
17:04 7.2 °C 6.3 °C 1014.8 hPa SSE 12.9 km/h 19.3 km/h 94% 11.68 mm 5.00 W/m2
17:09 7.2 °C 6.3 °C 1014.4 hPa SSE 8 km/h 16.1 km/h 94% 8.38 mm 5.00 W/m2
17:14 7.2 °C 6.3 °C 1014.8 hPa South 11.3 km/h 12.9 km/h 94% 6.86 mm 9.00 W/m2
17:19 7.2 °C 6.3 °C 1014.8 hPa SSE 11.3 km/h 19.3 km/h 94% 10.16 mm 5.00 W/m2
17:24 7.2 °C 6.3 °C 1014.8 hPa Calm   12.9 km/h 94% 12.19 mm 0.00 W/m2
17:30 7.2 °C 6.3 °C 1014.4 hPa Calm   19.3 km/h 94% 10.67 mm 0.00 W/m2
17:34 7.2 °C 6.3 °C 1014.4 hPa SSE 3.2 km/h 16.1 km/h 94% 9.91 mm 0.00 W/m2
17:40 7.2 °C 6.3 °C 1013.8 hPa Calm   19.3 km/h 94% 9.91 mm 0.00 W/m2
17:45 7.1 °C 6.2 °C 1014.1 hPa Calm   14.5 km/h 94% 4.57 mm 0.00 W/m2
17:50 7.1 °C 6.2 °C 1014.1 hPa Calm   17.7 km/h 94% 10.16 mm 0.00 W/m2
17:55 7.1 °C 6.2 °C 1013.8 hPa SSE 11.3 km/h 19.3 km/h 94% 5.33 mm 0.00 W/m2
18:00 7.1 °C 6.2 °C 1014.1 hPa SE 11.3 km/h 30.6 km/h 94% 6.6 mm 0.00 W/m2
18:05 7.1 °C 6.2 °C 1014.1 hPa SSE 12.9 km/h 20.9 km/h 94% 7.87 mm 0.00 W/m2
18:10 7.1 °C 6.2 °C 1014.1 hPa South 12.9 km/h 16.1 km/h 94% 5.84 mm 0.00 W/m2
18:15 7.1 °C 6.2 °C 1014.1 hPa SSE 12.9 km/h 19.3 km/h 94% 5.59 mm 0.00 W/m2
18:20 7.1 °C 6.2 °C 1013.8 hPa SSE 12.9 km/h 37 km/h 94% 4.83 mm 0.00 W/m2
18:25 7.2 °C 6.3 °C 1013.8 hPa SSE 6.4 km/h 24.1 km/h 94% 4.06 mm 0.00 W/m2
18:30 7.3 °C 6.6 °C 1013.8 hPa SSE 25.7 km/h 38.6 km/h 95% 6.1 mm 0.00 W/m2
18:35 7.6 °C 6.8 °C 1013.4 hPa SSE 14.5 km/h 37 km/h 95% 3.81 mm 0.00 W/m2
18:40 7.8 °C 7.1 °C 1013.4 hPa SSW 3.2 km/h 37 km/h 95% 5.08 mm 0.00 W/m2
18:45 7.9 °C 7.1 °C 1013.8 hPa SSW 16.1 km/h 22.5 km/h 95% 12.7 mm 0.00 W/m2
18:50 8 °C 7.2 °C 1013.8 hPa SSW 1.6 km/h 32.2 km/h 95% 6.6 mm 0.00 W/m2
18:55 8.1 °C 7.3 °C 1013.8 hPa SW 20.9 km/h 32.2 km/h 95% 10.67 mm 0.00 W/m2
19:00 8.2 °C 7.4 °C 1013.4 hPa South 25.7 km/h 27.4 km/h 95% 6.35 mm 0.00 W/m2
19:05 8.2 °C 7.4 °C 1013.4 hPa SSW 25.7 km/h 35.4 km/h 95% 6.86 mm 0.00 W/m2
19:10 8.2 °C 7.5 °C 1013.1 hPa SSW 19.3 km/h 59.5 km/h 95% 2.54 mm 0.00 W/m2
19:15 8.4 °C 7.6 °C 1014.1 hPa SSW 6.4 km/h 48.3 km/h 95% 24.64 mm 0.00 W/m2
19:20 8.5 °C 7.7 °C 1014.4 hPa South 12.9 km/h 37 km/h 95% 14.99 mm 0.00 W/m2
19:25 8.6 °C 7.8 °C 1014.4 hPa South 35.4 km/h 41.8 km/h 95% 15.49 mm 0.00 W/m2
19:30 8.6 °C 7.8 °C 1014.4 hPa SSW 24.1 km/h 54.7 km/h 95% 25.15 mm 0.00 W/m2
19:35 8.7 °C 7.9 °C 1014.1 hPa SW 29 km/h 38.6 km/h 95% 18.29 mm 0.00 W/m2
19:40 8.7 °C 7.9 °C 1014.4 hPa SSE 25.7 km/h 48.3 km/h 95% 17.53 mm 0.00 W/m2
19:45 8.7 °C 7.9 °C 1014.1 hPa SSW 43.5 km/h 45.1 km/h 95% 3.56 mm 0.00 W/m2
19:50 8.8 °C 8 °C 1014.1 hPa SSW 9.7 km/h 41.8 km/h 95% 3.3 mm 0.00 W/m2
19:55 8.8 °C 8.1 °C 1014.4 hPa SSW 19.3 km/h 69.2 km/h 95% 5.08 mm 0.00 W/m2
20:00 8.8 °C 8.1 °C 1014.1 hPa SW 14.5 km/h 46.7 km/h 95% 9.65 mm 0.00 W/m2
20:05 8.9 °C 8.1 °C 1014.4 hPa SSW 32.2 km/h 61.2 km/h 95% 6.35 mm 0.00 W/m2
20:10 8.9 °C 8.2 °C 1014.8 hPa South 14.5 km/h 49.9 km/h 95% 13.97 mm 0.00 W/m2
20:15 8.9 °C 8.2 °C 1014.8 hPa SSW 11.3 km/h 64.4 km/h 95% 6.6 mm 0.00 W/m2
20:20 8.9 °C 8.2 °C 1014.8 hPa SSW 32.2 km/h 53.1 km/h 95% 11.94 mm 0.00 W/m2
20:25 8.9 °C 8.2 °C 1015.1 hPa South 19.3 km/h 59.5 km/h 95% 6.6 mm 0.00 W/m2
20:30 8.9 °C 8.2 °C 1015.1 hPa SSW 17.7 km/h 51.5 km/h 95% 4.06 mm 0.00 W/m2
20:35 8.9 °C 8.2 °C 1015.1 hPa SE 16.1 km/h 45.1 km/h 95% 4.32 mm 0.00 W/m2
20:40 9 °C 8.2 °C 1015.1 hPa South 22.5 km/h 53.1 km/h 95% 3.05 mm 0.00 W/m2
20:45 9 °C 8.2 °C 1015.5 hPa SW 37 km/h 48.3 km/h 95% 8.64 mm 0.00 W/m2
20:50 9 °C 8.2 °C 1015.5 hPa South 29 km/h 49.9 km/h 95% 4.32 mm 0.00 W/m2
20:55 8.9 °C 8.2 °C 1015.5 hPa SW 11.3 km/h 54.7 km/h 95% 3.56 mm 0.00 W/m2
21:00 8.8 °C 8.1 °C 1015.5 hPa SSW 14.5 km/h 57.9 km/h 95% 1.52 mm 0.00 W/m2
21:05 8.8 °C 8 °C 1015.5 hPa South 22.5 km/h 61.2 km/h 95% 1.02 mm 0.00 W/m2
21:10 8.7 °C 7.9 °C 1015.8 hPa SW 48.3 km/h 56.3 km/h 95% 1.02 mm 0.00 W/m2
21:15 8.6 °C 7.8 °C 1015.8 hPa South 33.8 km/h 61.2 km/h 95% 2.03 mm 0.00 W/m2
21:20 8.6 °C 7.8 °C 1015.8 hPa South 20.9 km/h 45.1 km/h 95% 7.11 mm 0.00 W/m2
21:25 8.6 °C 7.8 °C 1015.8 hPa SSW 29 km/h 53.1 km/h 95% 2.29 mm 0.00 W/m2
21:31 8.6 °C 7.8 °C 1015.8 hPa SSW 19.3 km/h 54.7 km/h 95% 1.27 mm 0.00 W/m2
21:36 8.6 °C 7.8 °C 1016.1 hPa South 27.4 km/h 45.1 km/h 95% 1.02 mm 0.00 W/m2
21:41 8.7 °C 7.9 °C 1016.1 hPa South 56.3 km/h 56.3 km/h 95% 0 mm 0.00 W/m2
21:46 8.7 °C 7.9 °C 1015.8 hPa SSW 16.1 km/h 49.9 km/h 95% 0 mm 0.00 W/m2
21:51 8.7 °C 7.9 °C 1016.1 hPa WSW 11.3 km/h 49.9 km/h 95% 0 mm 0.00 W/m2
21:56 8.6 °C 7.8 °C 1016.5 hPa SSE 40.2 km/h 53.1 km/h 95% 0 mm 0.00 W/m2
22:01 8.7 °C 7.9 °C 1016.5 hPa SSW 40.2 km/h 53.1 km/h 95% 0 mm 0.00 W/m2
22:06 8.6 °C 7.8 °C 1016.5 hPa SSE 24.1 km/h 41.8 km/h 95% 0 mm 0.00 W/m2
22:11 8.6 °C 7.8 °C 1016.5 hPa SSW 20.9 km/h 45.1 km/h 95% 0 mm 0.00 W/m2
22:16 8.6 °C 7.8 °C 1016.8 hPa SSW 17.7 km/h 43.5 km/h 95% 0 mm 0.00 W/m2
22:21 8.6 °C 7.8 °C 1016.5 hPa South 17.7 km/h 53.1 km/h 95% 0 mm 0.00 W/m2
22:26 8.6 °C 7.8 °C 1016.5 hPa South 11.3 km/h 46.7 km/h 95% 0 mm 0.00 W/m2
22:31 8.6 °C 7.8 °C 1016.8 hPa SW 51.5 km/h 51.5 km/h 95% 0 mm 0.00 W/m2
22:36 8.6 °C 7.8 °C 1016.8 hPa SSE 17.7 km/h 54.7 km/h 95% 0 mm 0.00 W/m2
22:41 8.6 °C 7.8 °C 1016.8 hPa SW 11.3 km/h 45.1 km/h 95% 0 mm 0.00 W/m2
22:46 8.6 °C 7.8 °C 1017.2 hPa SW 24.1 km/h 41.8 km/h 95% 0 mm 0.00 W/m2
22:47 8.6 °C 7.8 °C 1017.5 hPa SW 3.2 km/h 22.5 km/h 95% 0 mm 0.00 W/m2
22:51 8.6 °C 7.8 °C 1017.2 hPa South 51.5 km/h 51.5 km/h 95% 0 mm 0.00 W/m2
22:56 8.6 °C 7.8 °C 1017.2 hPa South 24.1 km/h 40.2 km/h 95% 0 mm 0.00 W/m2
23:02 8.5 °C 7.7 °C 1017.5 hPa South 11.3 km/h 27.4 km/h 95% 0 mm 0.00 W/m2
23:07 8.5 °C 7.7 °C 1017.5 hPa South 6.4 km/h 35.4 km/h 95% 0 mm 0.00 W/m2
23:11 8.5 °C 7.7 °C 1017.5 hPa SSE 41.8 km/h 62.8 km/h 95% 0 mm 0.00 W/m2
23:17 8.4 °C 7.7 °C 1017.5 hPa South 22.5 km/h 40.2 km/h 95% 0 mm 0.00 W/m2
23:22 8.3 °C 7.6 °C 1017.5 hPa South 14.5 km/h 38.6 km/h 95% 0 mm 0.00 W/m2
23:23 8.3 °C 7.5 °C 1017.8 hPa South 12.9 km/h 38.6 km/h 95% 0 mm 0.00 W/m2
23:28 8.2 °C 7.5 °C 1017.8 hPa South 29 km/h 43.5 km/h 95% 0 mm 0.00 W/m2
23:33 8.2 °C 7.5 °C 1017.8 hPa SSW 16.1 km/h 46.7 km/h 95% 0 mm 0.00 W/m2
23:38 8.2 °C 7.5 °C 1017.8 hPa SSE 24.1 km/h 43.5 km/h 95% 0 mm 0.00 W/m2
23:43 8.2 °C 7.5 °C 1017.8 hPa SW 19.3 km/h 54.7 km/h 95% 0 mm 0.00 W/m2
23:48 8.2 °C 7.5 °C 1017.8 hPa SSE 22.5 km/h 41.8 km/h 95% 0 mm 0.00 W/m2
23:53 8.2 °C 7.4 °C 1017.8 hPa SSE 20.9 km/h 46.7 km/h 95% 0 mm 0.00 W/m2
23:58 8.2 °C 7.5 °C 1017.8 hPa SW 12.9 km/h 33.8 km/h 95% 0 mm 0.00 W/m2
Foresthill Weather
 WU-history PHP script courtesy of   Juneau County Weather.
powered by Cumulus v1.9.3 (1059)
Ambient Weather VWS v14.00
Top Contact Website Map Copyright © 2007 - 2018 Foresthillweather.com Never base important decisions on this or any weather information obtained from the Internet